(191672) = 2004 RT10

Discovered at Vicques on 2004-09-07 by M. Ory.

Orbit

Orbit type: Main Belt

Note: WebGL enabled browser required.

epoch2023-09-13.0
epoch JD2460200.5
perihelion date2023-05-04.44287
perihelion JD2460068.94287
argument of perihelion (°)166.28643
ascending node (°)180.37892
inclination (°)1.53266
eccentricity0.1934884
perihelion distance (AU)1.9436397
Tisserand w.r.t. Jupiter3.5
ΔV w.r.t. Earth (km/sec)8.7
semimajor axis (AU)2.4099340
mean anomaly (°)34.65856
mean daily motion (°/day)0.26344870
aphelion distance (AU)2.876
period (years)3.74
P-vector [x]0.97303899
P-vector [y]-0.21405094
P-vector [z]-0.08589132
Q-vector [x]0.23064061
Q-vector [y]0.90276345
Q-vector [z]0.36307446
absolute magnitude17.34
phase slope0.15
uncertainty0
referenceMPEC 2024-A65
observations used458
oppositions15
arc length (days)9054
first opposition used1999
last opposition used2024
residual rms (arc-secs)0.76
perturbers coarse indicatorM-v
perturbers precise indicator003Ek
first observation date used1999-03-22.0
last observation date used2024-01-04.0
computer nameMPCLINUX
JD of orbit computation2456731.625121
perihelion JD uncertainty (days)6.6644E-05
argument of perihelion uncertainty (°)1.2845E-04
ascending node uncertainty (°)1.2804E-04
inclination uncertainty (°)6.0732E-06
eccentricity uncertainty 6.5938E-08
perihelion distance uncertainty (AU)1.5242E-07
Minimum Orbit Intersection Distances (in AU)
for orbit epoch: 2460200.5, reference: E2024-A65
Mercury1.55946
Venus1.21881
Earth0.93606
Mars0.56095
Jupiter2.52959
Saturn6.40801
Uranus15.5709
Neptune27.5717

Observations

470 total observations over interval: 1999 03 22.291250 – 2024 01 04.417285
These data are available for download (format description).

Date (UT) J2000 RA J2000 Dec Magn Location Ref
1999 03 22.291250 11 55 55.935 +00 23 56.64 21.37 V 645 – Apache Point-Sloan Digital Sky Survey MPS 211755
1999 03 22.294722 11 55 55.740 +00 23 57.93 22.36   645 – Apache Point-Sloan Digital Sky Survey MPS 211755
2004 08 26.34568 00 15 20.66 +02 18 33.7 20.4 R 683 – Goodricke-Pigott Observatory, Tucson MPS 112812
2004 08 26.35908 00 15 20.26 +02 18 32.1 21.3 R 683 – Goodricke-Pigott Observatory, Tucson MPS 112812
2004 08 26.37246 00 15 19.93 +02 18 30.4 20.9 R 683 – Goodricke-Pigott Observatory, Tucson MPS 112812
2004 08 26.39627 00 15 19.32 +02 18 26.9 18.8 R 703 – Catalina Sky Survey MPS 112812
2004 08 26.40705 00 15 19.09 +02 18 25.0 18.2 R 703 – Catalina Sky Survey MPS 112812
2004 08 26.41785 00 15 18.77 +02 18 23.4 18.8 R 703 – Catalina Sky Survey MPS 112812
2004 08 26.42867 00 15 18.56 +02 18 20.1 19.0 R 703 – Catalina Sky Survey MPS 112812
2004 09 07.88543 00 09 01.44 +01 22 07.4 19.1 R 185 – Observatoire Astronomique Jurassien-Vicques MPS 112812
2004 09 07.90476 00 09 00.59 +01 22 00.3 18.9 R 185 – Observatoire Astronomique Jurassien-Vicques MPS 112812
2004 09 07.92286 00 08 59.81 +01 21 54.9 19.2 R 185 – Observatoire Astronomique Jurassien-Vicques MPS 112812
2004 09 08.04760 00 08 54.51 +01 21 12.5 18.4 R 599 – Campo Imperatore-CINEOS MPS 112812
2004 09 08.05895 00 08 54.03 +01 21 08.9 18.6 R 599 – Campo Imperatore-CINEOS MPS 112812
2004 09 08.07027 00 08 53.56 +01 21 05.3 18.7 R 599 – Campo Imperatore-CINEOS MPS 112812
2004 09 08.23902 00 08 47.35 +01 20 09.6 19.4   704 – Lincoln Laboratory ETS, New Mexico MPS 112812
2004 09 08.25090 00 08 46.85 +01 20 06.1 19.3   704 – Lincoln Laboratory ETS, New Mexico MPS 112812
2004 09 08.26283 00 08 46.40 +01 20 01.7 19.7   704 – Lincoln Laboratory ETS, New Mexico MPS 112812
2004 09 08.27473 00 08 45.86 +01 19 56.8 19.9   704 – Lincoln Laboratory ETS, New Mexico MPS 112812
2004 09 08.28725 00 08 45.33 +01 19 53.1 19.6   704 – Lincoln Laboratory ETS, New Mexico MPS 112812
2004 09 08.90457 00 08 20.73 +01 16 20.6 18.9 R 185 – Observatoire Astronomique Jurassien-Vicques MPS 112812
2004 09 08.91302 00 08 20.38 +01 16 17.9 18.6 R 185 – Observatoire Astronomique Jurassien-Vicques MPS 112812
2004 09 08.92394 00 08 19.97 +01 16 15.0 18.8 R 185 – Observatoire Astronomique Jurassien-Vicques MPS 112812
2004 09 09.24582 00 08 06.89 +01 14 26.4 19.7   704 – Lincoln Laboratory ETS, New Mexico MPS 112812
2004 09 09.25721 00 08 06.40 +01 14 21.5 19.8   704 – Lincoln Laboratory ETS, New Mexico MPS 112812
2004 09 09.26862 00 08 05.90 +01 14 18.1 19.8   704 – Lincoln Laboratory ETS, New Mexico MPS 112812
2004 09 09.28002 00 08 05.28 +01 14 13.1 20.1   704 – Lincoln Laboratory ETS, New Mexico MPS 112812
2004 09 11.40813 00 06 35.94 +01 01 41.3 19.2 V 691 – Steward Observatory, Kitt Peak-Spacewatch MPS 113024
2004 09 11.43558 00 06 34.68 +01 01 31.2 19.5 V 691 – Steward Observatory, Kitt Peak-Spacewatch MPS 113024
2004 09 11.46330 00 06 33.43 +01 01 21.3 19.2 V 691 – Steward Observatory, Kitt Peak-Spacewatch MPS 113024
2004 09 17.21424 00 02 15.03 +00 25 14.4 19.1 V 691 – Steward Observatory, Kitt Peak-Spacewatch MPS 113024
2004 09 17.24070 00 02 13.72 +00 25 04.1 19.1 V 691 – Steward Observatory, Kitt Peak-Spacewatch MPS 113024
2004 09 17.26716 00 02 12.41 +00 24 53.9 19.3 V 691 – Steward Observatory, Kitt Peak-Spacewatch MPS 113024
2004 09 17.27132 00 02 12.16 +00 24 52.2 19.0   704 – Lincoln Laboratory ETS, New Mexico MPS 113024
2004 09 17.28300 00 02 11.61 +00 24 47.5 19.4   704 – Lincoln Laboratory ETS, New Mexico MPS 113024
2004 09 17.29467 00 02 10.96 +00 24 43.7 19.2   704 – Lincoln Laboratory ETS, New Mexico MPS 113024
2004 09 17.30635 00 02 10.40 +00 24 39.0 19.4   704 – Lincoln Laboratory ETS, New Mexico MPS 113024
2004 09 17.31804 00 02 09.79 +00 24 34.4 19.6   704 – Lincoln Laboratory ETS, New Mexico MPS 113024
2004 09 17.88193 00 01 43.75 +00 20 52.3 18.7 R 185 – Observatoire Astronomique Jurassien-Vicques MPS 114420
2004 09 17.89530 00 01 43.03 +00 20 46.4 18.8 R 185 – Observatoire Astronomique Jurassien-Vicques MPS 114420
2004 09 17.90169 00 01 42.76 +00 20 43.8 18.8 R 185 – Observatoire Astronomique Jurassien-Vicques MPS 114420
2004 09 17.92025 00 01 41.85 +00 20 36.2 19.1 R 185 – Observatoire Astronomique Jurassien-Vicques MPS 114420
2004 09 18.30280 00 01 23.68 +00 18 09.7 19.4   704 – Lincoln Laboratory ETS, New Mexico MPS 114420
2004 09 18.31535 00 01 23.07 +00 18 05.2 19.0   704 – Lincoln Laboratory ETS, New Mexico MPS 114420
2004 09 18.32782 00 01 22.43 +00 18 00.4 18.9   704 – Lincoln Laboratory ETS, New Mexico MPS 114420
2004 09 18.34043 00 01 21.83 +00 17 55.0 19.5   704 – Lincoln Laboratory ETS, New Mexico MPS 114420
2004 09 18.35285 00 01 21.19 +00 17 50.1 19.1   704 – Lincoln Laboratory ETS, New Mexico MPS 114420
2004 09 21.42115 23 58 55.85 -00 02 15.3 18.8 V 691 – Steward Observatory, Kitt Peak-Spacewatch MPS 114420
2004 09 21.44739 23 58 54.56 -00 02 25.6 18.9 V 691 – Steward Observatory, Kitt Peak-Spacewatch MPS 114420
2004 09 21.47469 23 58 53.20 -00 02 36.5 18.9 V 691 – Steward Observatory, Kitt Peak-Spacewatch MPS 114420
2004 10 04.83534 23 48 57.46 -01 25 48.0 18.8 R 185 – Observatoire Astronomique Jurassien-Vicques MPS 115773
2004 10 04.85791 23 48 56.47 -01 25 54.8 19.3 R 185 – Observatoire Astronomique Jurassien-Vicques MPS 115773
2004 10 04.87149 23 48 55.87 -01 25 59.1 18.7 R 185 – Observatoire Astronomique Jurassien-Vicques MPS 115773
2004 10 04.87902 23 48 55.55 -01 26 01.6 19.2 V A13 – Observatoire Naef, Ependes MPS 115773
2004 10 04.88154 23 48 55.45 -01 26 02.7 19.0 V A13 – Observatoire Naef, Ependes MPS 115773
2004 10 04.88405 23 48 55.34 -01 26 03.6 18.8 V A13 – Observatoire Naef, Ependes MPS 115773
2004 10 04.88655 23 48 55.24 -01 26 04.4 18.9 V A13 – Observatoire Naef, Ependes MPS 115773
2004 10 04.88905 23 48 55.13 -01 26 05.2 19.1 V A13 – Observatoire Naef, Ependes MPS 115773
2004 10 06.18498 23 48 05.11 -01 33 10.4 19.0 R 699 – Lowell Observatory-LONEOS MPS 115773
2004 10 06.20119 23 48 04.60 -01 33 15.0   699 – Lowell Observatory-LONEOS MPS 115773
2004 10 06.21739 23 48 03.90 -01 33 21.0   699 – Lowell Observatory-LONEOS MPS 115773
2004 10 06.23362 23 48 03.24 -01 33 26.6   699 – Lowell Observatory-LONEOS MPS 115773
2004 10 07.23245 23 47 25.97 -01 38 43.9 19.2   704 – Lincoln Laboratory ETS, New Mexico MPS 115773
2004 10 07.24315 23 47 25.54 -01 38 46.8 20.0   704 – Lincoln Laboratory ETS, New Mexico MPS 115773
2004 10 07.26456 23 47 24.66 -01 38 55.2 20.0   704 – Lincoln Laboratory ETS, New Mexico MPS 115773
2004 10 07.27526 23 47 24.29 -01 38 58.2 19.7   704 – Lincoln Laboratory ETS, New Mexico MPS 115773
2004 10 09.19437 23 46 17.03 -01 48 42.9 19.5   704 – Lincoln Laboratory ETS, New Mexico MPS 116651
2004 10 09.20508 23 46 16.54 -01 48 47.0 19.6   704 – Lincoln Laboratory ETS, New Mexico MPS 116651
2004 10 09.21579 23 46 16.19 -01 48 49.5 19.3   704 – Lincoln Laboratory ETS, New Mexico MPS 116651
2004 10 09.22651 23 46 15.74 -01 48 53.6 19.4   704 – Lincoln Laboratory ETS, New Mexico MPS 116651
2004 10 09.23722 23 46 15.31 -01 48 55.6 19.4   704 – Lincoln Laboratory ETS, New Mexico MPS 116651
2006 01 22.23590 09 43 08.75 +11 59 57.6 21.6 V 691 – Steward Observatory, Kitt Peak-Spacewatch MPS 160424
2006 01 22.25318 09 43 07.88 +12 00 01.9 21.6 V 691 – Steward Observatory, Kitt Peak-Spacewatch MPS 160424
2006 01 22.27053 09 43 06.98 +12 00 06.7 21.5 V 691 – Steward Observatory, Kitt Peak-Spacewatch MPS 160424
2006 01 23.42266 09 42 08.28 +12 05 11.1 21.4 V G96 – Mt. Lemmon Survey MPS 160424
2006 01 23.43115 09 42 07.81 +12 05 13.0 21.3 V G96 – Mt. Lemmon Survey MPS 160424
2006 01 23.43971 09 42 07.38 +12 05 15.4 21.3 V G96 – Mt. Lemmon Survey MPS 160424
2006 01 23.44826 09 42 06.91 +12 05 17.8 21.4 V G96 – Mt. Lemmon Survey MPS 160424
2006 01 31.364586 09 34 54.488 +12 42 50.36 21.48 V 645 – Apache Point-Sloan Digital Sky Survey MPS 390216
2006 01 31.368058 09 34 54.287 +12 42 51.43 22.18   645 – Apache Point-Sloan Digital Sky Survey MPS 390216
2006 02 01.21781 09 34 05.67 +12 47 05.8 21.1 V 691 – Steward Observatory, Kitt Peak-Spacewatch MPS 161787
2006 02 01.23517 09 34 04.61 +12 47 11.9 21.1 V 691 – Steward Observatory, Kitt Peak-Spacewatch MPS 161787
